Weather History for Opa Locka, FL

Change the Weather History Date:

Saturday, February 16, 2013

  Actual Average Record
Temperature  
Mean Temperature 66 °F -  
Max Temperature 75 °F 77 °F 85 °F (1962)
Min Temperature 55 °F 60 °F 42 °F (1991)
Cooling Degree Days 1    
Growing Degree Days 16 (Base 50)    
Moisture  
Dew Point 57 °F    
Average Humidity 76    
Maximum Humidity 100    
Minimum Humidity 34    
Precipitation  
Precipitation 0.05 in - - ()
Sea Level Pressure  
Sea Level Pressure 29.96 in    
Wind  
Wind Speed 10 mph (NW)    
Max Wind Speed 24 mph    
Max Gust Speed 30 mph    
Visibility 10 miles    
Events Rain    
Averages and records for this station are not official NWS values.
T = Trace of Precipitation, MM = Missing Value Source: NWS Daily Summary

Daily Weather History Graph

Daily Weather History Graph

Search for Another Location

Airport:

Trip Planner

Search our weather history database for the weather conditions in past years. The results will help you decide how hot, cold, wet, or windy it might be!

Date:

Astronomy

Feb. 16, 2013 Rise Set
Actual Time 6:55 AM EST 6:15 PM EST
Civil Twilight 6:31 AM EST 6:38 PM EST
Nautical Twilight 6:04 AM EST 7:05 PM EST
Astronomical Twilight 5:38 AM EST 7:32 PM EST
Moon 10:50 AM EST (2/16) No Moon Set
Length of Visible Light 12h 06m
Length of Day
11h 19m
Waxing Crescent, 39% of the Moon is Illuminated
Feb 16
Waxing Crescent
Feb 17
First Quarter
Feb 25
Full
Mar 4
Last Quarter
Mar 11
New

Hourly Weather History & Observations

Time (EST) Temp. Dew Point Humidity Pressure Visibility Wind Dir Wind Speed Gust Speed Precip Events Conditions
12:53 AM 64.9 °F 64.0 °F 97% 29.96 in 10.0 mi NW 4.6 mph - N/A   Mostly Cloudy
1:53 AM 64.9 °F 64.0 °F 97% 29.95 in 10.0 mi NNW 8.1 mph - N/A   Overcast
2:19 AM 64.4 °F 64.4 °F 100% 29.93 in 10.0 mi NNW 9.2 mph - N/A   Overcast
2:34 AM 64.4 °F 62.6 °F 94% 29.93 in 10.0 mi NNW 5.8 mph - N/A   Overcast
2:53 AM 64.0 °F 63.0 °F 96% 29.92 in 10.0 mi NNW 8.1 mph - N/A   Overcast
3:17 AM 64.4 °F 62.6 °F 94% 29.92 in 10.0 mi NW 8.1 mph - 0.00 in Rain Light Rain
3:53 AM 63.0 °F 62.1 °F 97% 29.92 in 10.0 mi NW 8.1 mph - 0.01 in Rain Light Rain
4:53 AM 63.0 °F 62.1 °F 97% 29.91 in 10.0 mi NNW 5.8 mph - 0.01 in Rain Light Rain
5:53 AM 63.0 °F 62.1 °F 97% 29.91 in 10.0 mi NNW 5.8 mph - 0.02 in Rain Light Rain
6:53 AM 63.0 °F 62.1 °F 97% 29.93 in 10.0 mi NW 6.9 mph - 0.01 in   Overcast
7:26 AM 62.6 °F 62.6 °F 100% 29.93 in 10.0 mi NNW 6.9 mph - N/A   Overcast
7:53 AM 63.0 °F 62.1 °F 97% 29.94 in 10.0 mi NW 5.8 mph - N/A   Overcast
8:53 AM 64.0 °F 62.1 °F 93% 29.95 in 10.0 mi NW 8.1 mph - N/A   Partly Cloudy
9:09 AM 64.4 °F 62.6 °F 94% 29.94 in 10.0 mi NW 6.9 mph - N/A   Scattered Clouds
9:53 AM 68.0 °F 62.1 °F 81% 29.96 in 10.0 mi NW 10.4 mph - N/A   Scattered Clouds
10:53 AM 69.1 °F 61.0 °F 75% 29.96 in 10.0 mi NW 10.4 mph - N/A   Clear
11:53 AM 73.9 °F 60.1 °F 62% 29.96 in 10.0 mi NW 15.0 mph - N/A   Scattered Clouds
12:53 PM 73.9 °F 55.9 °F 53% 29.94 in 10.0 mi West 17.3 mph 24.2 mph N/A   Scattered Clouds
1:53 PM 73.9 °F 51.1 °F 45% 29.91 in 10.0 mi West 13.8 mph 24.2 mph N/A   Partly Cloudy
2:53 PM 75.0 °F 48.0 °F 38% 29.91 in 10.0 mi WNW 18.4 mph 29.9 mph N/A   Clear
3:53 PM 73.9 °F 44.1 °F 34% 29.92 in 10.0 mi WNW 24.2 mph 27.6 mph N/A   Clear
4:53 PM 71.1 °F 48.0 °F 44% 29.95 in 10.0 mi NW 20.7 mph 24.2 mph N/A   Partly Cloudy
5:53 PM 68.0 °F 46.9 °F 47% 29.97 in 10.0 mi NW 15.0 mph 24.2 mph N/A   Clear
6:53 PM 66.0 °F 50.0 °F 56% 29.98 in 10.0 mi WNW 15.0 mph 21.9 mph N/A   Clear
7:53 PM 64.0 °F 51.1 °F 63% 30.01 in 10.0 mi NW 18.4 mph 24.2 mph N/A   Clear
8:53 PM 62.1 °F 48.0 °F 60% 30.05 in 10.0 mi NW 23.0 mph 28.8 mph N/A   Clear
9:53 PM 59.0 °F 45.0 °F 60% 30.08 in 10.0 mi NW 16.1 mph 20.7 mph N/A   Clear
10:53 PM 57.0 °F 45.0 °F 64% 30.10 in 10.0 mi NNW 16.1 mph 25.3 mph N/A   Clear
11:53 PM 55.9 °F 45.0 °F 67% 30.11 in 10.0 mi NNW 13.8 mph 19.6 mph N/A   Clear